Date String (YYYY-MM-DD hh:mm:ss) UTC,Instrument flags,Ambient pressure (hPa),Sample flow (lpm),Bypass flow (lpm),Sample temperature (°C),Ambient temperature (°C),ASC tube jacket temperature (°C),LED temperature (°C),Box temperature (°C),Sample RH (%),Span deviation,Mass concentration (μg/m³),Mass concentration (μg/m³),Mass concentration (μg/m³)
DateTimeUTC,F1_M11,P_M11,Q1_M11,Q2_M11,T1_M11,T2_M11,T3_M11,T4_M11,T5_M11,U1_M11,ZSPAN_M11,X2_M11,X0_M11,X1_M11
2023-05-24 01:00:00,,0829.5,5.01,0.00,29.4,28.0,00.0,37.7,31.2,24.1,0003.4,0026.29,0039.69,0025.00
2023-05-24 01:01:00,,0829.4,5.01,0.00,29.5,28.1,00.0,37.7,31.2,24.0,0003.5,0026.34,0039.73,0025.07
2023-05-24 01:02:00,,0829.4,5.00,0.00,29.5,28.2,00.0,37.7,31.3,24.1,0003.3,0026.44,0038.71,0025.15
2023-05-24 01:03:00,,0829.5,4.99,0.00,29.5,27.7,00.0,37.7,31.2,24.2,0003.3,0026.51,0038.77,0025.21
2023-05-24 01:04:00,,0829.4,5.00,0.00,29.5,26.0,00.0,37.6,31.0,24.0,0003.4,0026.53,0038.64,0025.24
2023-05-24 01:05:00,,0829.4,5.02,0.00,29.4,25.6,00.0,37.6,30.9,24.1,0003.5,0026.58,0039.02,0025.27
2023-05-24 01:06:00,,0829.4,5.00,0.00,29.4,25.8,00.0,37.6,30.8,24.6,0003.6,0026.61,0039.50,0025.29
2023-05-24 01:07:00,,0829.4,5.00,0.00,29.3,26.1,00.0,37.6,30.8,24.3,0003.5,0026.62,0039.56,0025.32
2023-05-24 01:08:00,,0829.4,5.00,0.00,29.3,26.5,00.0,37.6,30.9,24.3,0003.5,0026.68,0039.80,0025.37
2023-05-24 01:09:00,,0829.4,5.01,0.00,29.3,26.8,00.0,37.6,30.9,24.4,0003.6,0026.81,0039.48,0025.47
2023-05-24 01:10:00,,0829.4,4.99,0.00,29.3,27.1,00.0,37.6,31.0,24.4,0003.5,0026.95,0039.96,0025.57
2023-05-24 01:11:00,,0829.5,5.00,0.00,29.3,27.3,00.0,37.6,31.0,24.5,0003.6,0026.96,0040.37,0025.63
2023-05-24 01:12:00,,0829.5,5.00,0.00,29.4,27.5,00.0,37.6,31.1,24.6,0003.6,0026.97,0040.15,0025.64
2023-05-24 01:13:00,,0829.6,5.00,0.00,29.4,27.7,00.0,37.7,31.1,24.5,0003.6,0026.99,0039.75,0025.65
2023-05-24 01:14:00,,0829.5,5.00,0.00,29.4,27.9,00.0,37.7,31.2,24.5,0003.6,0027.04,0040.35,0025.70
2023-05-24 01:15:00,,0829.6,5.00,0.00,29.4,28.0,00.0,37.7,31.2,24.3,0003.6,0027.18,0040.66,0025.80
2023-05-24 01:16:00,,0829.6,4.99,0.00,29.5,28.1,00.0,37.7,31.2,24.2,0003.7,0027.24,0039.99,0025.87
2023-05-24 01:17:00,,0829.6,4.99,0.00,29.5,28.2,00.0,37.7,31.3,24.2,0003.5,0027.28,0039.81,0025.88
2023-05-24 01:18:00,,0829.6,4.99,0.00,29.5,28.2,00.0,37.8,31.3,24.2,0003.6,0027.31,0039.41,0025.95
2023-05-24 01:19:00,,0829.6,5.00,0.00,29.5,26.8,00.0,37.7,31.1,24.3,0003.6,0027.31,0039.52,0025.98
2023-05-24 01:20:00,,0829.6,5.01,0.00,29.5,25.7,00.0,37.6,31.0,24.3,0003.6,0027.28,0038.99,0025.98
2023-05-24 01:21:00,,0829.6,5.01,0.00,29.4,25.8,00.0,37.6,30.9,24.3,0003.5,0027.22,0038.74,0025.96
2023-05-24 01:22:00,,0829.6,5.01,0.00,29.3,26.0,00.0,37.6,30.8,24.4,0003.5,0027.28,0038.71,0025.99
2023-05-24 01:23:00,,0829.6,4.99,0.00,29.3,26.3,00.0,37.6,30.9,24.3,0003.5,0027.39,0039.77,0026.09
2023-05-24 01:24:00,,0829.6,4.99,0.00,29.3,26.6,00.0,37.6,30.9,24.4,0003.6,0027.50,0040.06,0026.19
2023-05-24 01:25:00,,0829.7,5.00,0.00,29.3,26.9,00.0,37.6,31.0,24.5,0003.7,0027.52,0040.07,0026.26
2023-05-24 01:26:00,,0829.7,5.01,0.00,29.3,27.2,00.0,37.6,31.0,24.4,0003.7,0027.55,0040.10,0026.31
2023-05-24 01:27:00,,0829.7,5.01,0.00,29.3,27.4,00.0,37.6,31.1,24.5,0003.7,0027.59,0040.30,0026.36
2023-05-24 01:28:00,,0829.7,4.99,0.00,29.4,27.6,00.0,37.7,31.1,24.4,0003.7,0027.65,0040.40,0026.42
2023-05-24 01:29:00,,0829.7,4.99,0.00,29.4,27.8,00.0,37.7,31.1,24.4,0003.7,0027.72,0040.24,0026.51
2023-05-24 01:30:00,,0829.7,5.00,0.00,29.4,27.9,00.0,37.7,31.2,24.4,0003.6,0027.76,0040.33,0026.55
2023-05-24 01:31:00,,0829.7,5.00,0.00,29.5,28.1,00.0,37.7,31.2,24.3,0003.7,0027.88,0040.33,0026.66
2023-05-24 01:32:00,,0829.7,5.01,0.00,29.5,28.2,00.0,37.7,31.3,24.4,0003.7,0028.03,0040.59,0026.77
2023-05-24 01:33:00,,0829.7,5.00,0.00,29.5,28.3,00.0,37.8,31.3,24.5,0003.7,0028.02,0040.42,0026.80
2023-05-24 01:34:00,,0829.7,4.99,0.00,29.6,27.6,00.0,37.7,31.2,24.2,0003.7,0028.05,0039.83,0026.82
2023-05-24 01:35:00,,0829.7,4.99,0.00,29.5,26.0,00.0,37.7,31.0,24.2,0003.7,0028.01,0039.22,0026.84
2023-05-24 01:36:00,,0829.7,5.01,0.00,29.4,25.6,00.0,37.6,30.9,24.3,0003.7,0028.04,0039.63,0026.84
2023-05-24 01:37:00,,0829.6,5.01,0.00,29.4,25.8,00.0,37.6,30.8,24.4,0003.6,0028.04,0039.68,0026.84
2023-05-24 01:38:00,,0829.7,5.00,0.00,29.3,26.1,00.0,37.6,30.8,24.4,0003.6,0028.09,0039.70,0026.85
2023-05-24 01:39:00,,0829.7,5.00,0.00,29.3,26.5,00.0,37.6,30.8,24.5,0003.5,0028.12,0039.75,0026.85
2023-05-24 01:40:00,,0829.7,5.00,0.00,29.3,26.8,00.0,37.6,30.9,24.4,0003.6,0028.16,0039.97,0026.82
2023-05-24 01:41:00,,0829.6,5.00,0.00,29.3,27.1,00.0,37.6,31.0,24.4,0003.7,0028.20,0039.98,0026.82
2023-05-24 01:42:00,,0829.7,5.00,0.00,29.3,27.3,00.0,37.6,31.0,24.4,0003.6,0028.16,0040.33,0026.79
2023-05-24 01:43:00,,0829.6,5.00,0.00,29.3,27.5,00.0,37.6,31.1,24.3,0003.6,0028.13,0040.46,0026.78
2023-05-24 01:44:00,,0829.7,5.00,0.00,29.4,27.7,00.0,37.7,31.1,24.1,0003.6,0028.19,0040.65,0026.82
2023-05-24 01:45:00,,0829.6,4.99,0.00,29.4,27.8,00.0,37.7,31.1,23.9,0003.7,0028.18,0040.63,0026.82
2023-05-24 01:46:00,,0829.6,4.99,0.00,29.4,28.0,00.0,37.7,31.2,24.0,0003.7,0028.17,0041.17,0026.80
2023-05-24 01:47:00,,0829.6,5.00,0.00,29.5,28.1,00.0,37.7,31.2,23.8,0003.7,0028.19,0042.08,0026.82
2023-05-24 01:48:00,,0829.7,5.00,0.00,29.5,28.2,00.0,37.7,31.3,23.6,0003.7,0028.23,0042.41,0026.87
2023-05-24 01:49:00,,0829.6,5.01,0.00,29.5,28.3,00.0,37.8,31.3,23.5,0003.7,0028.25,0042.29,0026.94
2023-05-24 01:50:00,,0829.7,5.00,0.00,29.6,28.2,00.0,37.8,31.3,23.4,0003.7,0028.30,0042.48,0027.02
2023-05-24 01:51:00,,0829.7,4.99,0.00,29.6,26.8,00.0,37.7,31.1,23.3,0003.7,0028.34,0042.51,0027.14
2023-05-24 01:52:00,,0829.6,5.00,0.00,29.5,25.7,00.0,37.6,31.0,23.3,0003.6,0028.48,0042.95,0027.30
2023-05-24 01:53:00,,0829.7,5.01,0.00,29.4,25.7,00.0,37.6,30.8,23.0,0003.5,0028.72,0043.48,0027.52
2023-05-24 01:54:00,,0829.7,5.00,0.00,29.4,25.9,00.0,37.6,30.8,23.4,0003.6,0028.91,0043.83,0027.69
2023-05-24 01:55:00,,0829.7,5.00,0.00,29.3,26.3,00.0,37.6,30.8,23.6,0003.6,0029.05,0044.22,0027.83
2023-05-24 01:56:00,,0829.7,5.00,0.00,29.3,26.6,00.0,37.6,30.9,23.7,0003.6,0029.17,0044.34,0027.96
2023-05-24 01:57:00,,0829.7,5.00,0.00,29.3,26.9,00.0,37.6,30.9,23.8,0003.6,0029.39,0044.66,0028.14
2023-05-24 01:58:00,,0829.7,5.01,0.00,29.3,27.2,00.0,37.6,31.0,23.6,0003.7,0029.56,0043.27,0028.31
2023-05-24 01:59:00,,0829.7,5.00,0.00,29.3,27.4,00.0,37.7,31.0,23.4,0003.6,0029.67,0042.52,0028.43
